Location: Baia de Cri?
(46.1667°N, 22.7167°E)
Time: 09:32:16
(UTC+00:00)

Gblst 52 Del rocket - Pass Details

Date: 15 January 2026
Orbit: 805 x 1364 km, 51.5° (Epoch: 9 February)

Event Time Altitude Azimuth Distance (km) Brightness Sun altitude
Exits shadow 04:00:17 39° 316° (NW) 1,185 4.6 -21.5°
Maximum altitude 04:02:07 60° 16° (NNE) 916 4.3 -21.2°
Drops below altitude 10° 04:07:37 10° 97° (E) 2,420 7.8 -20.3°
Sets 04:10:10 0° 101° (E) 3,391 9.0 -19.8°
